Simultaneous Nadir Overpasses (SNOs) Predictions

Prediction of SNOs between GOES-16 and NOAA-19 Satellite Orbit:

Table of predicted SNOs for the next 14.0 days since TLE Epoch: 10/31/2025
Index Date Time (GOES-16) GOES-16 Lat,Lon NOAA-19 Lat,Lon Distance(km) Time Diff (sec)
1 11/01/2025 17:06:46 0.05,-104.71 0.57,-107.05 267.58 80
2 11/02/2025 16:56:44 0.05,-104.71 -0.10,-103.97 83.79 80
3 11/03/2025 16:44:04 0.05,-104.71 -0.82,-100.90 435.01 80
4 11/05/2025 05:15:13 -0.04,-104.66 -0.90,-108.39 424.86 80
5 11/06/2025 05:02:32 -0.04,-104.66 -0.21,-105.30 74.03 80
6 11/07/2025 04:47:11 -0.04,-104.66 0.53,-102.23 276.87 80
7 11/09/2025 17:05:40 0.05,-104.69 0.47,-106.65 223.31 80
8 11/10/2025 16:55:39 0.05,-104.69 -0.20,-103.57 127.82 80
9 11/11/2025 16:42:57 0.06,-104.69 -0.88,-100.48 479.11 80
10 11/13/2025 05:14:05 -0.05,-104.65 -0.83,-107.97 379.37 80
11 11/14/2025 05:01:24 -0.06,-104.65 -0.14,-104.89 28.12 80
